Location: Dumpton Point
(51.3500°N, 1.4433°E)
Time: 08:24:24
(UTC+00:00)

Meteor 1-27 - Pass Details

Date: 09 April 2020
Orbit: 838 x 892 km, 81.3° (Epoch: 24 May)

Event Time Altitude Azimuth Distance (km) Brightness Sun altitude
Exits shadow 22:47:31 62° 256° (WSW) 997 4.4 -28.8°
Maximum altitude 22:48:02 65° 286° (WNW) 975 4.5 -28.9°
Drops below altitude 10° 22:53:53 10° 8° (N) 2,574 7.5 -29.2°
Sets 22:56:23 0° 12° (NNE) 3,519 8.3 -29.3°
